Location: Wangen+im+Allg�u
(47.7098°N, 9.8383°E)
Time: 12:31:41
(UTC+02:00)

ISS - Pass Details

Date: 07 January 2018
Orbit: 402 x 408 km, 51.6° (Epoch: 20 July)

Event Time Altitude Azimuth Distance (km) Brightness Sun altitude
Exits shadow 06:12:15 40° 354° (N) 627 -3.1 -18.7°
Drops below altitude 10° 06:15:40 10° 77° (ENE) 1,503 0.0 -18.2°
Enters shadow 07:09:07 -74° 282° (WNW) 12,700 3.7 -9.6°
Maximum altitude 07:49:21 89° 13° (NNE) 425 -3.7 -3.6°
